Tracking 20941 objects as of 2-Jul-2020
HD Live streaming from Space Station
objects crossing your sky now

COSMOS 418

Track COSMOS 418 now!
10-day predictions
COSMOS 418 is classified as:


NORAD ID: 5217
Int'l Code: 1971-041H
Perigee: 1,405.3 km
Apogee: 1,500.1 km
Inclination: 74.0 °
Period: 114.8 minutes
Semi major axis: 7823 km
RCS: 0.6974 m2 (medium)
Launch date: May 7, 1971
Source: Commonwealth of Independent States (former USSR) (CIS)
Launch site: PLESETSK MISSILE AND SPACE COMPLEX (PKMTR)
aabbcc
Your satellite tracking list
Your tracking list is empty




NASA's NSSDC Master Catalog

Two Line Element Set (TLE):
1  5217U 71041H   20184.35237895 -.00000033 +00000-0 -10328-3 0  9990
2  5217 074.0147 130.6424 0060563 293.3717 183.1944 12.54538537251069
Source of the keplerian elements: AFSPC